Celebrity Equinox — 9HXD9 — position and weather

sailwx.info

Track history (hours):
 
Tides and Currents Weather Stations Pressure Air Temp Water Temp Dewpoint Dewpoint Depression Visibility Wind Speed Wind Dir Waves Ship Positions

Celebrity Equinox

Last reported at 2014-Jul-25 03:32 UTC. Time now 2014-Jul-25 06:50 UTC.
Position N 40°32' E 014°43'.

Length 317 m; draft 9 m.

Type: Ship. MMSI: 249667000.

Date/timePositionNaut miles runAvg speedWind from/ knotsBaromVisibWave heightAir tempDewpointWater temp
2014-Jul-25 03:32N 40°32' E 014°43'2416.4
2014-Jul-25 02:04N 40°08' E 014°46'229 7.7
2014-Jul-23 20:22N 36°20' E 015°09'12 9.7
2014-Jul-23 19:12N 36°12' E 014°58'6 9.7
2014-Jul-23 18:33N 36°08' E 014°52'10 9.7
2014-Jul-23 17:33N 36°03' E 014°42'1010.0
2014-Jul-23 16:32N 35°55' E 014°34'426 9.9
2014-Jul-21 21:33N 36°30' E 023°20'1514.5
2014-Jul-21 20:33N 36°44' E 023°28'414.4
2014-Jul-21 20:17N 36°47' E 023°30'1314.4
2014-Jul-21 19:21N 37°00' E 023°34'1214.6
2014-Jul-21 18:31N 37°12' E 023°37'1614.5
2014-Jul-21 17:26N 37°27' E 023°40'1314.5
2014-Jul-21 16:33N 37°40' E 023°41'1514.7
2014-Jul-21 15:33N 37°55' E 023°37'2 1.7
2014-Jul-21 14:33N 37°56' E 023°37'0 0.0
2014-Jul-21 13:33N 37°56' E 023°37'0 0.0
2014-Jul-21 12:29N 37°56' E 023°37'0 0.0
2014-Jul-21 11:32N 37°56' E 023°37'0 0.0
2014-Jul-21 10:29N 37°56' E 023°37'0 0.0
2014-Jul-21 08:19N 37°56' E 023°37'0 0.0
2014-Jul-21 07:33N 37°56' E 023°37'0 0.0
2014-Jul-21 06:33N 37°56' E 023°37'6 1.0
2014-Jul-21 00:32N 37°51' E 023°40'4112.6
2014-Jul-20 21:20N 37°30' E 024°24'1114.3
2014-Jul-20 20:33N 37°32' E 024°38'1514.3
2014-Jul-20 19:31N 37°32' E 024°57'1717.3
2014-Jul-20 18:33N 37°28' E 025°17'2 2.0
2014-Jul-20 17:33N 37°27' E 025°19'0 0.0
2014-Jul-20 16:33N 37°27' E 025°19'0 0.0
2014-Jul-20 15:32N 37°27' E 025°19'0 0.0
2014-Jul-20 14:32N 37°27' E 025°19'0 0.0
2014-Jul-20 13:31N 37°27' E 025°19'0 0.0
2014-Jul-20 12:31N 37°27' E 025°19'0 0.0
2014-Jul-20 11:33N 37°27' E 025°19'0 0.0
2014-Jul-20 10:33N 37°27' E 025°19'0 0.1
2014-Jul-20 09:33N 37°27' E 025°19'6 5.6
2014-Jul-20 08:33N 37°33' E 025°18'2019.1
2014-Jul-20 07:30N 37°53' E 025°22'1918.9
2014-Jul-20 06:30N 38°11' E 025°23'1918.8
2014-Jul-20 05:31N 38°30' E 025°24'  
2014-Jul-17 20:33N 38°48' E 025°42'2121.3
2014-Jul-17 19:33N 38°27' E 025°46'3618.1
2014-Jul-17 17:33N 38°01' E 026°19'29 1.7
2014-Jul-17 00:12N 37°32' E 026°19'710.1
2014-Jul-16 23:30N 37°26' E 026°15'7 6.9
2014-Jul-16 22:31N 37°21' E 026°09'7 6.8
2014-Jul-16 21:32N 37°16' E 026°04'1111.2
2014-Jul-16 20:33N 37°07' E 025°57'1111.1
2014-Jul-16 19:32N 36°57' E 025°49'1010.5
2014-Jul-16 18:33N 36°49' E 025°42'9 8.2
2014-Jul-16 17:29N 36°42' E 025°35'8 8.4
2014-Jul-16 16:33N 36°36' E 025°28'1010.1
2014-Jul-16 15:33N 36°27' E 025°22'3 1.6
2014-Jul-16 13:27N 36°25' E 025°25'0 0.1
2014-Jul-16 12:33N 36°25' E 025°25'0 0.0
2014-Jul-16 11:33N 36°25' E 025°25'0 0.0
2014-Jul-16 10:32N 36°25' E 025°25'0 0.0
2014-Jul-16 09:33N 36°25' E 025°25'0 0.0
2014-Jul-16 07:21N 36°25' E 025°25'0 0.0
2014-Jul-16 06:33N 36°25' E 025°25'0 0.1
2014-Jul-16 05:33N 36°25' E 025°25'0 0.0
2014-Jul-16 04:22N 36°25' E 025°25'3 3.6
2014-Jul-16 03:29N 36°23' E 025°22'1616.9
2014-Jul-16 02:33N 36°23' E 025°02'1918.6
2014-Jul-16 01:33N 36°23' E 024°39'2018.7
2014-Jul-16 00:30N 36°24' E 024°15'  
Track history (hours):
 
Tides and Currents Weather Stations Pressure Air Temp Water Temp Dewpoint Dewpoint Depression Visibility Wind Speed Wind Dir Waves Ship Positions

Celebrity Equinox

Last reported at 2014-Jul-25 03:32 UTC. Time now 2014-Jul-25 06:50 UTC.
Position N 40°32' E 014°43'.

Length 317 m; draft 9 m.

Type: Ship. MMSI: 249667000.

Date/timePositionNaut miles runAvg speedWind from/ knotsBaromVisibWave heightAir tempDewpointWater temp
2014-Jul-25 03:32N 40°32' E 014°43'2416.4
2014-Jul-25 02:04N 40°08' E 014°46'229 7.7
2014-Jul-23 20:22N 36°20' E 015°09'12 9.7
2014-Jul-23 19:12N 36°12' E 014°58'6 9.7
2014-Jul-23 18:33N 36°08' E 014°52'10 9.7
2014-Jul-23 17:33N 36°03' E 014°42'1010.0
2014-Jul-23 16:32N 35°55' E 014°34'426 9.9
2014-Jul-21 21:33N 36°30' E 023°20'1514.5
2014-Jul-21 20:33N 36°44' E 023°28'414.4
2014-Jul-21 20:17N 36°47' E 023°30'1314.4
2014-Jul-21 19:21N 37°00' E 023°34'1214.6
2014-Jul-21 18:31N 37°12' E 023°37'1614.5
2014-Jul-21 17:26N 37°27' E 023°40'1314.5
2014-Jul-21 16:33N 37°40' E 023°41'1514.7
2014-Jul-21 15:33N 37°55' E 023°37'2 1.7
2014-Jul-21 14:33N 37°56' E 023°37'0 0.0
2014-Jul-21 13:33N 37°56' E 023°37'0 0.0
2014-Jul-21 12:29N 37°56' E 023°37'0 0.0
2014-Jul-21 11:32N 37°56' E 023°37'0 0.0
2014-Jul-21 10:29N 37°56' E 023°37'0 0.0
2014-Jul-21 08:19N 37°56' E 023°37'0 0.0
2014-Jul-21 07:33N 37°56' E 023°37'0 0.0
2014-Jul-21 06:33N 37°56' E 023°37'6 1.0
2014-Jul-21 00:32N 37°51' E 023°40'4112.6
2014-Jul-20 21:20N 37°30' E 024°24'1114.3
2014-Jul-20 20:33N 37°32' E 024°38'1514.3
2014-Jul-20 19:31N 37°32' E 024°57'1717.3
2014-Jul-20 18:33N 37°28' E 025°17'2 2.0
2014-Jul-20 17:33N 37°27' E 025°19'0 0.0
2014-Jul-20 16:33N 37°27' E 025°19'0 0.0
2014-Jul-20 15:32N 37°27' E 025°19'0 0.0
2014-Jul-20 14:32N 37°27' E 025°19'0 0.0
2014-Jul-20 13:31N 37°27' E 025°19'0 0.0
2014-Jul-20 12:31N 37°27' E 025°19'0 0.0
2014-Jul-20 11:33N 37°27' E 025°19'0 0.0
2014-Jul-20 10:33N 37°27' E 025°19'0 0.1
2014-Jul-20 09:33N 37°27' E 025°19'6 5.6
2014-Jul-20 08:33N 37°33' E 025°18'2019.1
2014-Jul-20 07:30N 37°53' E 025°22'1918.9
2014-Jul-20 06:30N 38°11' E 025°23'1918.8
2014-Jul-20 05:31N 38°30' E 025°24'  
2014-Jul-17 20:33N 38°48' E 025°42'2121.3
2014-Jul-17 19:33N 38°27' E 025°46'3618.1
2014-Jul-17 17:33N 38°01' E 026°19'29 1.7
2014-Jul-17 00:12N 37°32' E 026°19'710.1
2014-Jul-16 23:30N 37°26' E 026°15'7 6.9
2014-Jul-16 22:31N 37°21' E 026°09'7 6.8
2014-Jul-16 21:32N 37°16' E 026°04'1111.2
2014-Jul-16 20:33N 37°07' E 025°57'1111.1
2014-Jul-16 19:32N 36°57' E 025°49'1010.5
2014-Jul-16 18:33N 36°49' E 025°42'9 8.2
2014-Jul-16 17:29N 36°42' E 025°35'8 8.4
2014-Jul-16 16:33N 36°36' E 025°28'1010.1
2014-Jul-16 15:33N 36°27' E 025°22'3 1.6
2014-Jul-16 13:27N 36°25' E 025°25'0 0.1
2014-Jul-16 12:33N 36°25' E 025°25'0 0.0
2014-Jul-16 11:33N 36°25' E 025°25'0 0.0
2014-Jul-16 10:32N 36°25' E 025°25'0 0.0
2014-Jul-16 09:33N 36°25' E 025°25'0 0.0
2014-Jul-16 07:21N 36°25' E 025°25'0 0.0
2014-Jul-16 06:33N 36°25' E 025°25'0 0.1
2014-Jul-16 05:33N 36°25' E 025°25'0 0.0
2014-Jul-16 04:22N 36°25' E 025°25'3 3.6
2014-Jul-16 03:29N 36°23' E 025°22'1616.9
2014-Jul-16 02:33N 36°23' E 025°02'1918.6
2014-Jul-16 01:33N 36°23' E 024°39'2018.7
2014-Jul-16 00:30N 36°24' E 024°15'  

Dump ship's entire track history